NOAA 16 DEB, 41363

Orbit data source: Space-Track

NOAA 16 DEB, 41363 is space debris in SSO originally from a launch on Thu, 21 Sep 2000 UTC launched from the Air Force Western Test Range (AFWTR). Debris objects in space refer to the collection of defunct objects orbiting the Earth. Examples of debris include non-operational satellites, rocket bodies, and fragments generated from explosions, collisions, or faulty payload assembly.

Loading next visibility...
Identifier
41363, 2000-055JG
Orbit
SSO
Country
Flag of USUS
Related business
Manufacturer
Unknown
Mission
Spacecraft
Bus & Motor
Unknown
Mass
Unknown
Launch date (UTC)
2000-09-21 (25 years ago)
Launch vehicle
Unknown
Launch site
Air Force Western Test Range (AFWTR)
Object type
Payload
Rocket body
Debris
Shape & HBR
Unknown shape, 0.1 m
Radar Cross Section
Small (<0.1 m²)

Expand to show TLE details & history
Last TLE update: 1 day ago

TLE from 1 day ago
0 NOAA 16 DEB
1 41363U 00055JG  25348.48155596  .00035027  00000-0  50053-2 0  9994
2 41363  98.9073 176.2117 0014399 252.6688 107.2944 14.76486556513719
Epoch: 2025-12-14T11:33Z
TLE epoch observation values (Epoch: 2025-12-14T11:33:26.434Z)
Latitude
-0.00005°
Longitude
-80.54228°
Altitude
646.439 km
Speed
7.533 km/s
True Right ascension
11h 44m 50s
True Declination
0° 00' 00"
Sunlit
Object was in daylight at epoch
Visualization orbit readout
Latitude
Unknown
Longitude
Unknown
Altitude
Unknown
Speed
Unknown
Apparent Right ascension
Unknown
Apparent Declination
Unknown
Sunlit
N/A
Visualization observer readout
Local Sidereal Time
14:51:19
Azimuth
Unknown
Elevation
Unknown
Doppler factor
Unknown
Orbital elements
Apogee altitude
647.632 km
Perigee altitude
627.428 km
Semi-major axis
7,015.667 km
Eccentricity
0.00144
Inclination
98.9073°
RAAN
176.2117°
Arg. of periapsis
252.6688°
True anomaly
107.45186°
Mean anomaly
107.2944°
Eccentric anomaly
107.37314°
Mean motion
3.69351 °/min
Orbital period
97.47 mins
BSTAR
0.0050053
Loading maneuver chart data...
Computing Atmospheric mass density...
Loading historical data...
Loading historical data...
Loading historical data...
Loading historical data...
Loading historical data...
Loading historical data...
Loading historical data...

Documentation

Showing up to 5 results
|